Location: ????????
(54.9045°N, 39.1041°E)
Time: 02:19:15
(UTC+00:00)

Cosmos 2297 - Pass Details

Date: 14 April 2024
Orbit: 834 x 859 km, 71.0° (Epoch: 25 May)

Event Time Altitude Azimuth Distance (km) Brightness Sun altitude
Rises 01:19:53 0° 326° (NW) 3,438 6.8 -9.0°
Reaches altitude 10° 01:22:21 10° 327° (NNW) 2,501 6.1 -8.7°
Maximum altitude 01:28:08 86° 57° (ENE) 869 3.8 -8.0°
Drops below altitude 10° 01:33:53 10° 147° (SSE) 2,493 6.2 -7.3°
Sets 01:36:20 0° 147° (SSE) 3,426 6.9 -6.9°
